[[{"header":{"parameterUnit":"m.s-1","parameterCategory":1,"la1":30.2991,"la2":30.254,"lo1":-89.0895,"lo2":-89.0444,"dy":0.0017,"dx":0.0017,"nx":28,"ny":28,"refTime":"2025-07-29T03:00:00:Z","depth":0,"parameterNumber":2,"parameterNumberName":"U-component_of_WINDS"},"data":[0,0,0,0,0,0,0,0,0,0,0,0,0,0,0,0,0,0,0,0,0,0,0,0,0,0,0,0,0,0,0,0,0,0,0,0,0,0,0,0,0,0,0,0,0,0,0,0,0,0,0,0,0,0,0,0,0,0,-0.864,-0.8638,0,-0.8387,-0.8384,-0.8381,-0.8294,-0.8296,-0.8297,-0.8298,-0.8029,-0.8021,-0.8013,0,0,0,0,0,0,0,0,0,0,0,0,0,-0.904,-0.9034,-0.864,-0.8637,-0.8634,-0.8388,-0.8384,-0.8381,-0.8294,-0.8296,-0.8297,-0.8298,-0.8032,-0.8022,-0.8012,0,0,0,0,0,0,0,0,0,0,0,0,0,-0.8835,-0.9031,-0.8641,-0.8562,-0.8552,-0.8388,-0.8384,-0.838,-0.8294,-0.8296,-0.8297,-0.8299,-0.8035,-0.8023,-0.8011,-0.7905,0,0,-0.7974,-0.7969,0,0,0,0,0,0,0,0,-0.8847,-0.882,-0.8576,-0.8567,-0.8556,-0.8374,-0.8427,-0.822,-0.8294,-0.8392,-0.8298,-0.8299,-0.8142,-0.8121,-0.807,-0.7893,-0.7881,-0.7973,-0.7966,-0.796,-0.7957,0,0,0,0,0,0,0,-0.8861,-0.8831,-0.854,-0.8573,-0.856,-0.8536,-0.8508,-0.8387,-0.8261,-0.8383,-0.8376,-0.8348,-0.8137,-0.8082,-0.8063,-0.7877,-0.7973,-0.7962,-0.7955,-0.795,-0.7598,-0.7596,0,0,0,0,0,0,-0.889,-0.8843,-0.8548,-0.8532,-0.8708,-0.8527,-0.8497,-0.8431,-0.8262,-0.8238,-0.8347,-0.8345,-0.8102,-0.8077,-0.8053,-0.7916,-0.796,-0.7949,-0.7942,-0.76,-0.7598,-0.7596,0,0,0,0,0,0,-0.8899,-0.8864,-0.8558,-0.8686,-0.8645,-0.8519,-0.8446,-0.8425,-0.837,-0.8235,-0.8211,-0.8315,-0.8102,-0.807,-0.7943,-0.7906,-0.7944,-0.7932,-0.7603,-0.76,-0.7597,-0.7644,0,0,0,0,0,0,-0.8911,-0.8868,-0.8829,-0.8686,-0.8639,-0.8455,-0.8443,-0.8419,-0.8351,-0.8345,-0.8198,-0.8175,-0.8101,-0.7962,-0.7931,-0.789,-0.7923,-0.7605,-0.7601,-0.7598,-0.7645,-0.7643,-0.7641,0,0,0,0,0,-0.8925,-0.885,-0.8827,-0.8792,-0.8587,-0.8453,-0.8426,-0.8344,-0.8348,-0.8306,-0.8219,-0.818,-0.7916,-0.7949,-0.7914,-0.7869,-0.7607,-0.7602,-0.7598,-0.7646,-0.7643,-0.7641,0,0,0,0,0,0,-0.8988,-0.883,-0.8802,-0.868,-0.8581,-0.8439,-0.8383,-0.8344,-0.824,-0.8239,-0.8139,-0.8107,-0.7987,-0.7915,-0.7955,-0.7757,-0.7759,-0.7747,-0.7807,-0.7804,-0.7802,-0.782,-0.7913,0,0,0,0,0,-0.8989,-0.8896,-0.8762,-0.8666,-0.8618,-0.851,-0.8448,-0.8394,-0.8286,-0.8243,-0.8147,-0.8041,-0.7934,-0.7865,-0.7759,-0.7635,-0.76,-0.7586,-0.7585,-0.7584,-0.7573,-0.75,-0.7492,-0.758,-0.758,-0.7581,0,0,-0.8987,-0.8889,-0.8836,-0.8676,-0.8593,-0.8496,-0.8474,-0.8373,-0.8299,-0.8226,-0.8101,-0.8027,-0.7902,-0.7776,-0.7715,-0.7712,-0.7542,-0.7578,-0.7578,-0.7568,-0.7494,-0.7486,-0.7479,-0.7577,-0.7578,-0.7578,0,0,-0.8934,-0.8852,-0.8763,-0.8681,-0.8557,-0.8485,-0.8464,-0.8328,-0.8277,-0.815,-0.8093,-0.8003,-0.7821,-0.7734,-0.7666,-0.7582,-0.7541,-0.755,-0.7538,-0.7468,-0.7461,-0.7454,-0.7422,-0.7411,-0.7541,-0.7541,-0.7541,0,-0.8947,-0.8802,-0.8721,-0.8623,-0.8553,-0.8487,-0.8394,-0.8317,-0.8164,-0.8116,-0.8116,-0.7887,-0.7798,-0.7649,-0.7629,-0.7578,-0.7547,-0.7565,-0.7469,-0.7462,-0.7454,-0.7422,-0.741,-0.7543,-0.7543,-0.7543,-0.7543,0,-0.8822,-0.8722,-0.8664,-0.8521,-0.8445,-0.835,-0.8253,-0.8185,-0.8138,-0.8066,-0.7936,-0.7828,-0.7699,-0.766,-0.7612,-0.7504,-0.7506,-0.7489,-0.7489,-0.7449,-0.7416,-0.7404,-0.7546,-0.7545,-0.7544,-0.7544,0,0,-0.8799,-0.8614,-0.8594,-0.8528,-0.8387,-0.8306,-0.8208,-0.8084,-0.8027,-0.7924,-0.7836,-0.7685,-0.7669,-0.7592,-0.7534,-0.7473,-0.741,-0.7463,-0.7458,-0.7455,-0.7281,-0.7293,-0.728,-0.7384,-0.7382,-0.738,-0.7291,0,-0.8726,-0.8549,-0.8474,-0.8331,-0.8236,-0.8172,-0.8086,-0.7988,-0.7919,-0.7826,-0.7747,-0.7641,-0.7629,-0.7582,-0.7519,-0.7432,-0.7374,-0.7437,-0.7298,-0.7294,-0.7329,-0.7263,-0.7275,-0.7197,-0.7278,-0.7276,-0.7274,0,-0.8616,-0.8516,-0.8364,-0.8234,-0.8191,-0.8115,-0.7996,-0.7909,-0.7796,-0.775,-0.7665,-0.761,-0.7501,-0.7512,-0.7358,-0.7403,-0.7342,-0.7291,-0.7285,-0.7266,-0.728,-0.724,-0.717,-0.7157,-0.7254,-0.7256,-0.7257,0,-0.8612,-0.8438,-0.8325,-0.827,-0.8116,-0.8064,-0.7997,-0.7887,-0.7817,-0.7712,-0.7665,-0.7548,-0.7483,-0.7392,-0.7306,-0.7322,-0.716,-0.7163,-0.7115,-0.7117,-0.708,-0.7083,-0.6997,-0.7047,-0.7047,-0.7047,-0.7048,0,-0.8536,-0.8445,-0.8321,-0.825,-0.8146,-0.806,-0.7957,-0.7885,-0.7788,-0.77,-0.7638,-0.7556,-0.7449,-0.7353,-0.7285,-0.7167,-0.7139,-0.7095,-0.7078,-0.7099,-0.7104,-0.7055,-0.7057,-0.7044,-0.7045,-0.7045,-0.7046,0,-0.8512,-0.8426,-0.8297,-0.8164,-0.8128,-0.8056,-0.794,-0.7867,-0.7796,-0.7686,-0.7655,-0.7541,-0.7425,-0.7331,-0.7179,-0.7133,-0.7008,-0.699,-0.7047,-0.7037,-0.6993,-0.6997,-0.6869,-0.6846,-0.6915,-0.6915,-0.6914,0,-0.8468,-0.8397,-0.8257,-0.8195,-0.813,-0.8031,-0.796,-0.7873,-0.7801,-0.7668,-0.7611,-0.7492,-0.7391,-0.7208,-0.7109,-0.6992,-0.6968,-0.6932,-0.695,-0.6974,-0.6964,-0.6968,-0.696,-0.6929,-0.6928,-0.6928,-0.6928,0,-0.8399,-0.836,-0.8262,-0.8149,-0.8068,-0.7974,-0.7878,-0.7831,-0.7725,-0.7647,-0.753,-0.7452,-0.7298,-0.7178,-0.7051,-0.6978,-0.6934,-0.6924,-0.6906,-0.6925,-0.696,-0.6938,-0.7038,-0.6926,-0.6926,-0.6926,-0.6927,-0.6927,-0.8361,-0.8294,-0.8185,-0.8078,-0.7998,-0.791,-0.7836,-0.7756,-0.7657,-0.7526,-0.748,-0.7359,-0.7246,-0.7071,-0.6998,-0.69,-0.6896,-0.687,-0.6863,-0.6857,-0.6859,-0.6979,-0.6877,-0.6876,-0.6876,-0.6876,-0.6876,0,-0.8286,-0.8213,-0.8116,-0.7985,-0.7901,-0.7871,-0.7764,-0.7694,-0.7589,-0.7489,-0.7393,-0.7256,-0.714,-0.7034,-0.6912,-0.6854,-0.683,-0.6824,-0.6826,-0.6809,-0.6871,-0.6897,-0.6845,-0.6845,-0.6845,-0.6845,-0.6846,-0.6846,-0.8237,-0.8122,-0.807,-0.7914,-0.784,-0.7723,-0.7664,-0.7582,-0.7502,-0.7354,-0.7259,-0.7192,-0.7088,-0.6959,-0.685,-0.6822,-0.6778,-0.6777,-0.6743,-0.6801,-0.6805,-0.6809,-0.6834,-0.6769,-0.6769,-0.6689,-0.6688,-0.6688]},{"header":{"parameterUnit":"m.s-1","parameterCategory":1,"la1":30.2991,"la2":30.254,"lo1":-89.0895,"lo2":-89.0444,"dy":0.0017,"dx":0.0017,"nx":28,"ny":28,"refTime":"2025-07-29T03:00:00:Z","depth":0,"parameterNumber":3,"parameterNumberName":"V-component_of_WINDS"},"data":[0,0,0,0,0,0,0,0,0,0,0,0,0,0,0,0,0,0,0,0,0,0,0,0,0,0,0,0,0,0,0,0,0,0,0,0,0,0,0,0,0,0,0,0,0,0,0,0,0,0,0,0,0,0,0,0,0,0,3.9759,3.9761,0,3.9955,3.9957,3.9959,4.0015,4.0014,4.0013,4.0012,4.0212,4.0219,4.0225,0,0,0,0,0,0,0,0,0,0,0,0,0,3.9435,3.9441,3.9759,3.9761,3.9764,3.9954,3.9957,3.996,4.0015,4.0014,4.0012,4.0011,4.021,4.0218,4.0225,0,0,0,0,0,0,0,0,0,0,0,0,0,3.9598,3.9443,3.9758,3.9814,3.9821,3.9954,3.9957,3.996,4.0015,4.0014,4.0012,4.001,4.0208,4.0217,4.0226,4.0317,0,0,4.0256,4.026,0,0,0,0,0,0,0,0,3.9588,3.961,3.9804,3.9811,3.9819,3.9959,3.9916,4.008,4.0016,3.9942,4.0012,4.001,4.0129,4.0145,4.0185,4.0327,4.0335,4.0256,4.0262,4.0266,4.0269,0,0,0,0,0,0,0,3.9577,3.9601,3.9836,3.9806,3.9816,3.983,3.9852,3.9948,4.0042,3.9948,3.9952,3.9975,4.0133,4.0176,4.0191,4.0338,4.0256,4.0265,4.0271,4.0274,4.0568,4.057,0,0,0,0,0,0,3.9556,3.9592,3.983,3.9842,3.9697,3.9837,3.9861,3.9915,4.0041,4.0059,3.9976,3.9977,4.0161,4.0179,4.0198,4.0316,4.0266,4.0275,4.0281,4.0565,4.0568,4.057,0,0,0,0,0,0,3.9549,3.9577,3.9822,3.9718,3.9751,3.9845,3.9905,3.992,3.9963,4.0062,4.008,4.0002,4.016,4.0184,4.0288,4.0323,4.0279,4.0288,4.0563,4.0566,4.0569,4.0549,0,0,0,0,0,0,3.9539,3.9574,3.9609,3.9719,3.9756,3.9909,3.9907,3.9925,3.9979,3.9982,4.0092,4.0109,4.0161,4.0273,4.0297,4.0335,4.0296,4.056,4.0564,4.0568,4.0547,4.0552,4.0555,0,0,0,0,0,3.9528,3.9595,3.9611,3.9639,3.9802,3.991,3.9932,3.999,3.9982,4.0019,4.0083,4.0105,4.0315,4.0284,4.0311,4.0352,4.0559,4.0563,4.0568,4.0546,4.0551,4.0555,0,0,0,0,0,0,3.9487,3.9611,3.9629,3.9734,3.9811,3.992,3.9968,3.9993,4.0075,4.0074,4.0143,4.0168,4.0267,4.032,4.0283,4.0449,4.0437,4.0448,4.0411,4.0417,4.042,4.0407,4.0303,0,0,0,0,0,3.949,3.9568,3.9672,3.9754,3.9792,3.9873,3.9922,3.9961,4.0044,4.0077,4.0149,4.0229,4.0313,4.0367,4.045,4.0554,4.0581,4.0596,4.06,4.0603,4.0612,4.0674,4.0683,4.0586,4.0586,4.0586,0,0,3.9498,3.9575,3.962,3.9748,3.9813,3.9893,3.99,3.9984,4.0044,4.009,4.0193,4.0248,4.0342,4.0447,4.0497,4.0494,4.0644,4.0609,4.061,4.0618,4.068,4.0689,4.0697,4.0589,4.0588,4.0588,0,0,3.9554,3.9618,3.9696,3.9761,3.9858,3.9912,3.993,4.0035,4.0074,4.0178,4.0215,4.0287,4.043,4.0497,4.0549,4.0631,4.0656,4.0656,4.0677,4.0736,4.0744,4.0751,4.0783,4.0794,4.0664,4.0664,4.0664,0,3.9552,3.9673,3.9733,3.9816,3.9872,3.9916,3.9996,4.0056,4.0176,4.0214,4.0208,4.0391,4.0457,4.058,4.06,4.0639,4.0664,4.0645,4.0738,4.0746,4.0753,4.0785,4.0796,4.0663,4.0663,4.0663,4.0663,0,3.9667,3.9751,3.9801,3.9917,3.9978,4.0059,4.0132,4.0187,4.022,4.0274,4.0381,4.0462,4.0563,4.0594,4.0626,4.0722,4.0718,4.0724,4.0715,4.0761,4.0792,4.0805,4.0663,4.0663,4.0663,4.0663,0,0,3.9705,3.9852,3.987,3.9924,4.0035,4.0101,4.0184,4.0283,4.0331,4.0411,4.0485,4.0605,4.0612,4.0671,4.0711,4.0763,4.0827,4.0764,4.0767,4.0775,4.0941,4.0938,4.095,4.0842,4.0845,4.0847,4.0934,0,3.9777,3.9928,3.9984,4.0108,4.0187,4.0231,4.0304,4.038,4.0433,4.0509,4.0567,4.0652,4.0653,4.069,4.0743,4.0807,4.0861,4.0802,4.0913,4.0917,4.0892,4.0966,4.0963,4.1042,4.0946,4.0948,4.0949,0,3.9882,3.9965,4.0097,4.02,4.0236,4.03,4.0397,4.0467,4.0556,4.059,4.0657,4.0694,4.0784,4.0767,4.0893,4.0851,4.09,4.0939,4.0943,4.0959,4.0938,4.0987,4.1068,4.108,4.0968,4.0967,4.0965,0,3.9901,4.0045,4.0143,4.0187,4.0309,4.0354,4.0407,4.0493,4.055,4.0634,4.0672,4.0764,4.0816,4.0888,4.0949,4.093,4.1071,4.1058,4.1105,4.1104,4.1135,4.1133,4.1228,4.116,4.116,4.116,4.116,0,3.9978,4.0058,4.0153,4.0214,4.0306,4.0369,4.0458,4.0513,4.059,4.0664,4.0705,4.0773,4.0849,4.0927,4.0976,4.1075,4.1097,4.1129,4.1142,4.1128,4.1124,4.1163,4.116,4.1163,4.1163,4.1162,4.1161,0,4.0015,4.0082,4.0193,4.0299,4.0328,4.0391,4.0482,4.0544,4.0598,4.069,4.0715,4.0801,4.0895,4.0963,4.1084,4.1117,4.1224,4.1235,4.1195,4.1202,4.1246,4.1242,4.1373,4.1394,4.1308,4.1309,4.1309,0,4.0062,4.0125,4.0238,4.029,4.0343,4.0426,4.0484,4.0549,4.0608,4.0714,4.0763,4.086,4.0941,4.109,4.1163,4.1257,4.1272,4.1311,4.1287,4.1271,4.1277,4.1274,4.1282,4.1316,4.1317,4.1317,4.1318,0,4.0139,4.0169,4.0251,4.0346,4.0414,4.0491,4.0569,4.0609,4.0688,4.0752,4.0849,4.0912,4.1037,4.1134,4.1234,4.129,4.1318,4.1324,4.1341,4.1329,4.1305,4.1322,4.1209,4.1322,4.1321,4.1321,4.1321,4.1321,4.0186,4.0245,4.0334,4.0425,4.049,4.0562,4.0625,4.0687,4.0769,4.0876,4.0909,4.101,4.1098,4.1236,4.1292,4.1373,4.1372,4.1395,4.1401,4.1407,4.1408,4.1288,4.1391,4.1391,4.1391,4.1391,4.1391,0,4.0268,4.0328,4.041,4.0518,4.059,4.0608,4.0696,4.0755,4.0844,4.0923,4.1002,4.1114,4.1209,4.1289,4.1387,4.1436,4.1452,4.146,4.1459,4.1472,4.1402,4.138,4.1446,4.1446,4.1446,4.1446,4.1446,4.1446,4.032,4.0421,4.0462,4.0597,4.0656,4.0755,4.0804,4.0871,4.0935,4.1059,4.1137,4.1189,4.127,4.1374,4.1461,4.1483,4.1518,4.1524,4.1549,4.1483,4.1477,4.1471,4.145,4.153,4.1531,4.1613,4.1614,4.1614]}]]